Time,TemperatureF,DewpointF,PressureIn,WindDirection,WindDirectionDegrees,WindSpeedMPH,WindSpeedGustMPH,Humidity,HourlyPrecipIn,Conditions,Clouds,dailyrainin,SoftwareType,DateUTC
2013-12-24 10:51:00,13.0,4.0,-100.00,NW,305,5.0,14.0,66,0.00,,,-99.99,,2013-12-24 15:51:00,
2013-12-24 11:23:00,13.0,4.0,-100.00,NW,305,5.0,14.0,66,0.00,,,-99.99,,2013-12-24 16:23:00,
2013-12-24 11:33:00,13.0,4.0,-100.00,NW,305,5.0,14.0,66,0.00,,,-99.99,,2013-12-24 16:33:00,
2013-12-24 11:43:00,13.0,4.0,-100.00,NW,305,5.0,14.0,66,0.00,,,-99.99,,2013-12-24 16:43:00,
2013-12-24 14:52:00,15.0,7.0,-100.00,West,280,9.0,14.0,71,0.00,,,-99.99,,2013-12-24 19:52:00,
2013-12-24 15:22:00,15.0,8.0,-100.00,WNW,285,4.0,9.0,73,0.00,,,-99.99,,2013-12-24 20:22:00,
2013-12-24 15:52:00,15.0,8.0,-100.00,West,275,6.0,11.0,73,0.00,,,-99.99,,2013-12-24 20:52:00,
2013-12-24 16:11:00,15.0,8.0,-100.00,West,275,9.0,14.0,73,0.00,,,-99.99,,2013-12-24 21:11:00,
2013-12-24 16:22:00,14.0,8.0,-100.00,West,260,9.0,14.0,74,0.00,,,-99.99,,2013-12-24 21:22:00,
2013-12-24 16:53:00,14.0,8.0,-100.00,West,270,6.0,12.0,74,0.00,,,-99.99,,2013-12-24 21:53:00,
2013-12-24 17:23:00,14.0,8.0,-100.00,WNW,300,8.0,14.0,74,0.00,,,-99.99,,2013-12-24 22:23:00,
2013-12-24 17:31:00,14.0,7.0,-100.00,NW,305,6.0,10.0,74,0.00,,,-99.99,,2013-12-24 22:31:00,
2013-12-24 17:52:00,14.0,7.0,-100.00,NW,305,6.0,10.0,74,0.00,,,-99.99,,2013-12-24 22:52:00,
2013-12-24 18:02:00,14.0,7.0,-100.00,NW,305,6.0,10.0,74,0.00,,,-99.99,,2013-12-24 23:02:00,
2013-12-24 18:12:00,14.0,7.0,-100.00,NW,305,6.0,10.0,74,0.00,,,-99.99,,2013-12-24 23:12:00,
2013-12-24 18:22:00,14.0,7.0,-100.00,NW,305,6.0,10.0,74,0.00,,,-99.99,,2013-12-24 23:22:00,
2013-12-24 20:22:00,14.0,7.0,-100.00,NNW,330,3.0,8.0,71,0.00,,,-99.99,,2013-12-25 01:22:00,
2013-12-24 20:52:00,14.0,7.0,-100.00,NNW,340,3.0,4.0,73,0.00,,,-99.99,,2013-12-25 01:52:00,
2013-12-24 21:22:00,13.0,6.0,-100.00,NNW,335,0.0,0.0,72,0.00,,,-99.99,,2013-12-25 02:22:00,
2013-12-24 21:53:00,13.0,6.0,-100.00,SSE,160,0.0,0.0,74,0.00,,,-99.99,,2013-12-25 02:53:00,
2013-12-24 22:22:00,13.0,6.0,-100.00,SE,135,1.0,2.0,75,0.00,,,-99.99,,2013-12-25 03:22:00,
2013-12-24 22:53:00,10.0,6.0,-100.00,SSE,160,0.0,4.0,83,0.00,,,-99.99,,2013-12-25 03:53:00,
2013-12-24 23:03:00,10.0,6.0,-100.00,SSE,160,0.0,4.0,83,0.00,,,-99.99,,2013-12-25 04:03:00,
2013-12-24 23:23:00,11.0,7.0,-100.00,South,170,1.0,2.0,81,0.00,,,-99.99,,2013-12-25 04:23:00,
2013-12-24 23:43:00,11.0,7.0,-100.00,South,180,1.0,2.0,81,0.00,,,-99.99,,2013-12-25 04:43:00,
2013-12-24 23:53:00,11.0,7.0,-100.00,South,180,1.0,2.0,81,0.00,,,-99.99,,2013-12-25 04:53:00,